Regional Weather Roundup
Issued by NWS

Home | Current Version | Previous Version | Graphics & Text | Print | Product List | Glossary On
Versions: 1 2 3 4 5 6 7 8 9 10 11 12 13 14 15 16 17 18 19 20 21 22 23 24 25 26 27 28 29 30 31 32 33 34 35 36 37 38 39 40 41 42 43 44 45 46 47 48 49 50
000
ASUS43 KBIS 060410
RWRND

NORTH DAKOTA REGIONAL WEATHER ROUNDUP
NATIONAL WEATHER SERVICE BISMARCK ND
1100 PM CDT TUE MAY 05 2015

NOTE: "FAIR" INDICATES FEW OR NO CLOUDS BELOW 12,000 FEET WITH NO
SIGNIFICANT WEATHER AND/OR OBSTRUCTIONS TO VISIBILITY.


NDZ001>003-009>011-017-060500-
NORTHWEST NORTH DAKOTA

CITY           SKY/WX    TMP DP  RH WIND       PRES   REMARKS
WILLISTON      CLEAR     65  49  56 S6        29.78R
MINOT          CLEAR     60  36  40 SE6       29.83R
MINOT AFB      CLEAR     56  35  46 SE9       29.81S
$$

NDZ018>021-031>035-040>046-060500-
SOUTHWEST NORTH DAKOTA

CITY           SKY/WX    TMP DP  RH WIND       PRES   REMARKS
BISMARCK       MOCLDY    58  49  72 S8        29.86R
DICKINSON      MOCLDY    57  50  77 SE12      29.79S
GARRISON         N/A     59  45  59 SE8       29.83S
HETTINGER ARPT CLOUDY    59  51  75 SE10      29.83R
$$

NDZ004>008-012>016-024-026-027-054-060500-
NORTHEAST NORTH DAKOTA

CITY           SKY/WX    TMP DP  RH WIND       PRES   REMARKS
GRAND FORKS    PTCLDY    66  51  58 S16       29.96S
GRND FRKS AFB  CLEAR     66  51  57 SE16      29.96R
DEVILS LAKE    CLEAR     64  48  55 SE15      29.91S
$$

NDZ022-023-025-028>030-036>039-047>053-060500-
SOUTHEAST NORTH DAKOTA

CITY           SKY/WX    TMP DP  RH WIND       PRES   REMARKS
FARGO          PTCLDY    66  53  63 SE15      29.99R
JAMESTOWN      MOCLDY    64  53  67 SE16      29.92S
$$




USA.gov is the U.S. government's official web portal to all federal, state and local government web resources and services.